星链-36374(STARLINK-36374)

导读

STARLINK-36374是美国太空探索技术公司(SpaceX)星链(Starlink)互联网星座的卫星,于2026年1月12日由猎鹰9号火箭从卡纳维拉尔角太空军基地发射,属于Starlink 6-97任务。星链星座旨在近地轨道构建全球覆盖的高速卫星互联网,为基础设施匮乏地区提供宽带服务,同时也具备一定的军事应用潜力。

Basic Information
目录编号:
67417
目录名称:
STARLINK-36374
国际标识:
2026-005P
轨道中心:
EARTH
卫星名称:
星链-36374
卫星全名:
星链-36374(STARLINK-36374)
卫星状态:
在轨 (已飞行235 天)
发射日期:
2026-01-12 UTC
国别 :
美国 (US)
星等 :
--
Orbit Information
数据来源 国际轨道数据 AOE轨道数据
星历时间 2026-09-03T22:17:03+0800
12小时前
查看轨道信息
2026-08-29T08:00:00+0800
6天前
查看轨道信息
半长轴 6861.12km 6861.202km
偏心率 0.0001848 0.0001642
轨道倾角 43.002° 43.003°
近地点辐角 263.027° 306.135°
升交点赤经 313.372° 344.981°
平近点角 97.037° 208.406°
近地点 481.715km 481.938km
远地点 484.251km 484.192km
周期 94.265分钟 94.267分钟
每日圈数 15.276022 15.275747
Detailed Information
固有亮度:
5
最大亮度:
2.5
卫星平台:
Starlink V1.0
覆盖范围:
全球
运营商:
太空探索技术公司
运营商所在国:
美国
制造商(研发单位):
太空探索技术公司
制造商所在国:
美国
使用方式:
暂无
Satellite Introduction
Starlink 计划是 SpaceX 推出的全球卫星互联网项目,通过发射低轨道卫星,为全球尤其是偏远地区提供高速、低延迟的互联网服务。自 2019 年起,Starlink 已部署数千颗卫星,旨在缩小全球数字鸿沟,推动互联网普及。该项目还为军事、航空等行业提供通信支持,带来广泛经济效益。
2D Orbit Map
3D Orbit Map
Orbit Altitude Analysis Chart
Orbit Inclination Analysis Chart
Orbit Comprehensive Analysis Chart
View Comprehensive Chart
Conjunction Data List
Event ID Objects TCA Miss Dist (km) Collision Risk Probability Collision Risk Index (CRI) Action
CDM_260904-054306-218106-741721
2026-09-04T
05:43:06+0000
0.474 km
远距离
1.926154E-4 高风险 0.81
CDM_260905-012105-993006-741721
2026-09-05T
01:21:54+0000
0.985 km
远距离
1.793618E-5 中风险 0.6
CDM_260905-130805-993006-741721
2026-09-05T
13:08:04+0000
1.011 km
极远距离
1.63718E-5 中风险 0.59
CDM_260904-234705-993006-741721
2026-09-04T
23:47:45+0000
1.114 km
极远距离
1.170689E-5 中风险 0.56
CDM_260904-071706-218106-741721
2026-09-04T
07:17:18+0000
2.370 km
极远距离
1.613026E-6 低风险 0.39
CDM_260905-113305-993006-741721
2026-09-05T
11:33:54+0000
2.241 km
极远距离
1.462241E-6 低风险 0.38
CDM_260904-032106-218106-741721
2026-09-04T
03:21:48+0000
2.674 km
极远距离
1.307612E-6 低风险 0.37
CDM_260905-025605-993006-741721
2026-09-05T
02:56:04+0000
2.937 km
极远距离
9.451555E-7 极低风险 0.35
CDM_260904-221305-993006-741721
2026-09-04T
22:13:36+0000
2.991 km
极远距离
9.255384E-7 极低风险 0.34